Time,TemperatureF,DewpointF,PressureIn,WindDirection,WindDirectionDegrees,WindSpeedMPH,WindSpeedGustMPH,Humidity,HourlyPrecipIn,Conditions,Clouds,dailyrainin,SoftwareType,DateUTC
2013-06-01 00:01:00,62.8,46.9,29.74,WSW,248,3.0,3.0,54,0.00,,,0.00,meteohub,2013-06-01 05:01:00,
2013-06-01 00:07:00,62.6,47.3,29.74,West,276,3.0,3.0,55,0.00,,,0.00,meteohub,2013-06-01 05:07:00,
2013-06-01 00:12:00,62.6,46.8,29.74,West,264,0.0,4.0,54,0.00,,,0.00,meteohub,2013-06-01 05:12:00,
2013-06-01 00:17:00,62.4,47.1,29.74,West,271,0.0,4.0,55,0.00,,,0.00,meteohub,2013-06-01 05:17:00,
2013-06-01 00:22:00,62.2,47.1,29.74,WNW,288,0.0,4.0,55,0.00,,,0.00,meteohub,2013-06-01 05:22:00,
2013-06-01 00:27:00,62.2,46.9,29.74,West,263,0.0,3.0,55,0.00,,,0.00,meteohub,2013-06-01 05:27:00,
2013-06-01 00:32:00,62.1,46.8,29.74,West,265,0.0,3.0,55,0.00,,,0.00,meteohub,2013-06-01 05:32:00,
2013-06-01 00:37:00,61.9,46.8,29.74,NW,324,0.0,3.0,55,0.00,,,0.00,meteohub,2013-06-01 05:37:00,
2013-06-01 00:42:00,61.9,46.9,29.74,West,271,3.0,4.0,56,0.00,,,0.00,meteohub,2013-06-01 05:42:00,
2013-06-01 00:47:00,61.7,47.3,29.74,WNW,289,0.0,4.0,57,0.00,,,0.00,meteohub,2013-06-01 05:47:00,
2013-06-01 00:52:00,61.7,47.5,29.74,WNW,294,0.0,4.0,57,0.00,,,0.00,meteohub,2013-06-01 05:52:00,
2013-06-01 00:57:00,61.7,48.7,29.74,NW,315,0.0,3.0,60,0.00,,,0.00,meteohub,2013-06-01 05:57:00,
2013-06-01 01:02:00,61.7,47.1,29.74,WNW,303,0.0,3.0,57,0.00,,,0.00,meteohub,2013-06-01 06:02:00,
2013-06-01 01:07:00,61.5,47.1,29.71,West,276,3.0,3.0,57,0.00,,,0.00,meteohub,2013-06-01 06:07:00,
2013-06-01 01:12:00,61.5,47.7,29.71,NW,313,0.0,4.0,58,0.00,,,0.00,meteohub,2013-06-01 06:12:00,
2013-06-01 01:17:00,61.3,47.7,29.71,West,273,0.0,4.0,59,0.00,,,0.00,meteohub,2013-06-01 06:17:00,
2013-06-01 01:22:00,61.2,47.7,29.71,SSW,200,0.0,4.0,59,0.00,,,0.00,meteohub,2013-06-01 06:22:00,
2013-06-01 01:27:00,61.0,47.8,29.71,West,277,0.0,3.0,60,0.00,,,0.00,meteohub,2013-06-01 06:27:00,
2013-06-01 01:32:00,60.8,47.7,29.71,West,281,2.0,4.0,60,0.00,,,0.00,meteohub,2013-06-01 06:32:00,
2013-06-01 01:37:00,60.8,48.2,29.71,NW,304,2.0,4.0,61,0.00,,,0.00,meteohub,2013-06-01 06:37:00,
2013-06-01 01:42:00,60.6,48.2,29.71,West,274,0.0,4.0,61,0.00,,,0.00,meteohub,2013-06-01 06:42:00,
2013-06-01 01:47:00,60.6,48.2,29.71,West,272,0.0,3.0,61,0.00,,,0.00,meteohub,2013-06-01 06:47:00,
2013-06-01 01:52:00,60.4,48.6,29.71,WNW,289,0.0,3.0,62,0.00,,,0.00,meteohub,2013-06-01 06:52:00,
2013-06-01 01:57:00,60.4,47.5,29.71,West,268,0.0,3.0,60,0.00,,,0.00,meteohub,2013-06-01 06:57:00,
2013-06-01 02:02:00,60.3,47.8,29.71,WNW,291,0.0,3.0,61,0.00,,,0.00,meteohub,2013-06-01 07:02:00,
2013-06-01 02:07:00,60.3,47.8,29.71,West,273,3.0,3.0,61,0.00,,,0.00,meteohub,2013-06-01 07:07:00,
2013-06-01 02:12:00,60.1,47.7,29.71,WNW,283,0.0,3.0,61,0.00,,,0.00,meteohub,2013-06-01 07:12:00,
2013-06-01 02:17:00,60.1,48.4,29.71,SW,233,0.0,3.0,63,0.00,,,0.00,meteohub,2013-06-01 07:17:00,
2013-06-01 02:22:00,59.9,47.8,29.68,WSW,242,0.0,3.0,62,0.00,,,0.00,meteohub,2013-06-01 07:22:00,
2013-06-01 02:27:00,59.7,48.4,29.68,WSW,249,0.0,3.0,63,0.00,,,0.00,meteohub,2013-06-01 07:27:00,
2013-06-01 02:32:00,59.7,48.4,29.68,West,270,0.0,3.0,64,0.00,,,0.00,meteohub,2013-06-01 07:32:00,
2013-06-01 02:37:00,59.5,48.6,29.68,West,262,0.0,3.0,65,0.00,,,0.00,meteohub,2013-06-01 07:37:00,
2013-06-01 02:42:00,59.4,48.6,29.68,NW,308,0.0,3.0,65,0.00,,,0.00,meteohub,2013-06-01 07:42:00,
2013-06-01 02:47:00,59.4,48.6,29.68,WSW,254,0.0,3.0,65,0.00,,,0.00,meteohub,2013-06-01 07:47:00,
2013-06-01 02:52:00,59.4,48.6,29.71,WNW,289,0.0,3.0,65,0.00,,,0.00,meteohub,2013-06-01 07:52:00,
2013-06-01 02:57:00,59.4,49.1,29.71,NNW,337,0.0,3.0,66,0.00,,,0.00,meteohub,2013-06-01 07:57:00,
2013-06-01 03:02:00,59.4,48.6,29.71,West,265,0.0,3.0,65,0.00,,,0.00,meteohub,2013-06-01 08:02:00,
2013-06-01 03:07:00,59.4,48.4,29.71,WSW,254,2.0,3.0,65,0.00,,,0.00,meteohub,2013-06-01 08:07:00,
2013-06-01 03:12:00,59.2,48.2,29.71,SSW,205,3.0,3.0,65,0.00,,,0.00,meteohub,2013-06-01 08:12:00,
2013-06-01 03:17:00,59.2,48.7,29.71,North,353,2.0,3.0,66,0.00,,,0.00,meteohub,2013-06-01 08:17:00,
2013-06-01 03:22:00,59.0,48.7,29.68,NW,321,4.0,4.0,66,0.00,,,0.00,meteohub,2013-06-01 08:22:00,
2013-06-01 03:27:00,59.0,49.5,29.68,NW,325,2.0,4.0,68,0.00,,,0.00,meteohub,2013-06-01 08:27:00,
2013-06-01 03:32:00,59.0,48.6,29.68,WSW,254,0.0,4.0,66,0.00,,,0.00,meteohub,2013-06-01 08:32:00,
2013-06-01 03:37:00,59.0,48.9,29.68,North,357,0.0,4.0,67,0.00,,,0.00,meteohub,2013-06-01 08:37:00,
2013-06-01 03:42:00,59.0,49.3,29.68,WSW,242,0.0,4.0,68,0.00,,,0.00,meteohub,2013-06-01 08:42:00,
2013-06-01 03:47:00,58.8,48.6,29.68,WNW,286,0.0,3.0,67,0.00,,,0.00,meteohub,2013-06-01 08:47:00,
2013-06-01 03:52:00,58.6,48.7,29.68,WNW,288,0.0,3.0,68,0.00,,,0.00,meteohub,2013-06-01 08:52:00,
2013-06-01 03:57:00,58.5,49.1,29.68,West,271,0.0,3.0,69,0.00,,,0.00,meteohub,2013-06-01 08:57:00,
2013-06-01 04:02:00,58.3,48.9,29.68,West,262,0.0,3.0,69,0.00,,,0.00,meteohub,2013-06-01 09:02:00,
2013-06-01 04:07:00,58.1,49.3,29.68,WSW,251,0.0,3.0,70,0.00,,,0.00,meteohub,2013-06-01 09:07:00,
2013-06-01 04:12:00,57.9,49.1,29.68,WSW,257,0.0,3.0,70,0.00,,,0.00,meteohub,2013-06-01 09:12:00,
2013-06-01 04:17:00,57.7,48.9,29.68,WNW,298,0.0,3.0,70,0.00,,,0.00,meteohub,2013-06-01 09:17:00,
2013-06-01 04:22:00,57.6,49.1,29.68,SSW,205,0.0,4.0,71,0.00,,,0.00,meteohub,2013-06-01 09:22:00,
2013-06-01 04:27:00,57.6,49.1,29.68,West,261,0.0,4.0,71,0.00,,,0.00,meteohub,2013-06-01 09:27:00,
2013-06-01 04:32:00,57.4,49.5,29.68,West,275,0.0,4.0,72,0.00,,,0.00,meteohub,2013-06-01 09:32:00,
2013-06-01 04:37:00,57.4,50.0,29.68,NNW,329,0.0,2.0,73,0.00,,,0.00,meteohub,2013-06-01 09:37:00,
2013-06-01 04:42:00,57.6,50.0,29.68,NW,326,0.0,2.0,73,0.00,,,0.00,meteohub,2013-06-01 09:42:00,
2013-06-01 04:47:00,57.6,50.5,29.68,NNW,336,0.0,3.0,74,0.00,,,0.00,meteohub,2013-06-01 09:47:00,
2013-06-01 04:52:00,57.7,50.9,29.68,NNW,333,0.0,3.0,74,0.00,,,0.00,meteohub,2013-06-01 09:52:00,
2013-06-01 04:57:00,58.1,51.8,29.68,WNW,290,0.0,2.0,76,0.00,,,0.00,meteohub,2013-06-01 09:57:00,
2013-06-01 05:02:00,58.1,50.5,29.68,West,280,0.0,3.0,73,0.00,,,0.00,meteohub,2013-06-01 10:02:00,
2013-06-01 05:07:00,58.1,50.9,29.71,NW,319,0.0,3.0,74,0.00,,,0.00,meteohub,2013-06-01 10:07:00,
2013-06-01 05:12:00,57.9,49.8,29.71,West,280,0.0,3.0,72,0.00,,,0.00,meteohub,2013-06-01 10:12:00,
2013-06-01 05:17:00,57.7,49.5,29.71,West,266,0.0,0.0,72,0.00,,,0.00,meteohub,2013-06-01 10:17:00,
2013-06-01 05:22:00,57.4,48.9,29.71,WSW,244,0.0,2.0,71,0.00,,,0.00,meteohub,2013-06-01 10:22:00,
2013-06-01 05:27:00,57.2,49.1,29.71,West,265,0.0,3.0,72,0.00,,,0.00,meteohub,2013-06-01 10:27:00,
2013-06-01 05:32:00,57.0,48.9,29.71,West,275,0.0,3.0,72,0.00,,,0.00,meteohub,2013-06-01 10:32:00,
2013-06-01 05:37:00,56.8,49.5,29.71,West,262,0.0,4.0,73,0.00,,,0.00,meteohub,2013-06-01 10:37:00,
2013-06-01 05:42:00,56.8,49.8,29.71,WSW,253,0.0,4.0,74,0.00,,,0.00,meteohub,2013-06-01 10:42:00,
2013-06-01 05:47:00,57.0,49.6,29.71,West,263,0.0,4.0,74,0.00,,,0.00,meteohub,2013-06-01 10:47:00,
2013-06-01 05:52:00,57.0,49.6,29.71,West,273,2.0,3.0,74,0.00,,,0.00,meteohub,2013-06-01 10:52:00,
2013-06-01 05:57:00,57.0,49.8,29.71,NNW,331,0.0,3.0,74,0.00,,,0.00,meteohub,2013-06-01 10:57:00,
2013-06-01 06:02:00,57.2,49.8,29.71,NW,321,0.0,3.0,74,0.00,,,0.00,meteohub,2013-06-01 11:02:00,
2013-06-01 06:07:00,57.2,50.4,29.71,WSW,243,0.0,3.0,75,0.00,,,0.00,meteohub,2013-06-01 11:07:00,
2013-06-01 06:12:00,57.4,49.8,29.71,WSW,256,2.0,3.0,74,0.00,,,0.00,meteohub,2013-06-01 11:12:00,
2013-06-01 06:17:00,57.4,49.8,29.71,West,273,0.0,3.0,74,0.00,,,0.00,meteohub,2013-06-01 11:17:00,
2013-06-01 06:22:00,57.6,50.7,29.71,West,281,0.0,3.0,76,0.00,,,0.00,meteohub,2013-06-01 11:22:00,
2013-06-01 06:27:00,57.6,50.4,29.71,NW,315,0.0,3.0,75,0.00,,,0.00,meteohub,2013-06-01 11:27:00,
2013-06-01 06:32:00,57.7,50.7,29.71,West,281,3.0,3.0,76,0.00,,,0.00,meteohub,2013-06-01 11:32:00,
2013-06-01 06:37:00,57.7,50.4,29.71,WSW,237,0.0,3.0,75,0.00,,,0.00,meteohub,2013-06-01 11:37:00,
2013-06-01 06:42:00,57.9,50.4,29.71,WSW,258,0.0,4.0,75,0.00,,,0.00,meteohub,2013-06-01 11:42:00,
2013-06-01 06:47:00,57.9,50.0,29.71,WSW,248,0.0,4.0,74,0.00,,,0.00,meteohub,2013-06-01 11:47:00,
2013-06-01 06:52:00,57.7,50.4,29.71,West,265,0.0,4.0,75,0.00,,,0.00,meteohub,2013-06-01 11:52:00,
2013-06-01 06:57:00,57.9,50.2,29.71,West,259,2.0,3.0,75,0.00,,,0.00,meteohub,2013-06-01 11:57:00,
2013-06-01 07:02:00,57.9,51.3,29.71,SW,235,0.0,3.0,77,0.00,,,0.00,meteohub,2013-06-01 12:02:00,
2013-06-01 07:07:00,57.9,51.6,29.71,NNE,27,0.0,3.0,78,0.00,,,0.00,meteohub,2013-06-01 12:07:00,
2013-06-01 07:12:00,57.9,52.2,29.71,West,274,2.0,8.0,79,0.00,,,0.00,meteohub,2013-06-01 12:12:00,
2013-06-01 07:17:00,58.1,52.0,29.71,NW,315,2.0,8.0,79,0.00,,,0.00,meteohub,2013-06-01 12:17:00,
2013-06-01 07:22:00,58.1,52.0,29.74,NW,318,0.0,8.0,79,0.00,,,0.00,meteohub,2013-06-01 12:22:00,
2013-06-01 07:27:00,58.1,52.9,29.74,NW,311,0.0,4.0,81,0.00,,,0.00,meteohub,2013-06-01 12:27:00,
2013-06-01 07:32:00,58.1,52.9,29.74,WNW,287,0.0,4.0,81,0.00,,,0.00,meteohub,2013-06-01 12:32:00,
2013-06-01 07:37:00,58.1,52.9,29.74,West,266,0.0,4.0,81,0.00,,,0.00,meteohub,2013-06-01 12:37:00,
2013-06-01 07:42:00,58.3,53.6,29.74,West,281,0.0,4.0,83,0.00,,,0.00,meteohub,2013-06-01 12:42:00,
2013-06-01 07:47:00,58.5,54.0,29.74,NNW,345,0.0,3.0,84,0.00,,,0.00,meteohub,2013-06-01 12:47:00,
2013-06-01 07:52:00,58.5,53.8,29.74,North,353,0.0,4.0,83,0.00,,,0.00,meteohub,2013-06-01 12:52:00,
2013-06-01 07:57:00,58.8,54.7,29.74,NNW,339,0.0,4.0,85,0.00,,,0.00,meteohub,2013-06-01 12:57:00,
2013-06-01 08:02:00,59.0,54.9,29.74,WNW,299,0.0,4.0,85,0.00,,,0.00,meteohub,2013-06-01 13:02:00,
2013-06-01 08:07:00,59.2,55.4,29.71,WNW,288,0.0,3.0,86,0.00,,,0.00,meteohub,2013-06-01 13:07:00,
2013-06-01 08:12:00,59.5,56.1,29.71,NNW,346,0.0,3.0,87,0.00,,,0.00,meteohub,2013-06-01 13:12:00,
2013-06-01 08:17:00,59.7,56.7,29.71,North,357,0.0,3.0,88,0.00,,,0.00,meteohub,2013-06-01 13:17:00,
2013-06-01 08:22:00,59.7,56.7,29.74,North,6,0.0,4.0,88,0.00,,,0.00,meteohub,2013-06-01 13:22:00,
2013-06-01 08:27:00,59.9,56.5,29.74,West,276,0.0,8.0,87,0.00,,,0.00,meteohub,2013-06-01 13:27:00,
2013-06-01 08:32:00,60.3,56.7,29.74,ENE,61,0.0,8.0,87,0.00,,,0.00,meteohub,2013-06-01 13:32:00,
2013-06-01 08:37:00,60.6,57.0,29.74,NW,306,0.0,8.0,87,0.00,,,0.00,meteohub,2013-06-01 13:37:00,
2013-06-01 08:42:00,60.8,57.2,29.74,North,0,2.0,5.0,86,0.00,,,0.00,meteohub,2013-06-01 13:42:00,
2013-06-01 08:47:00,61.0,57.4,29.74,North,357,2.0,5.0,86,0.00,,,0.00,meteohub,2013-06-01 13:47:00,
2013-06-01 08:52:00,61.0,57.2,29.74,NW,323,0.0,5.0,85,0.00,,,0.00,meteohub,2013-06-01 13:52:00,
2013-06-01 08:57:00,61.0,56.8,29.74,NNE,25,0.0,4.0,84,0.00,,,0.00,meteohub,2013-06-01 13:57:00,
2013-06-01 09:03:00,61.0,57.0,29.74,WNW,289,4.0,4.0,84,0.00,,,0.00,meteohub,2013-06-01 14:03:00,
2013-06-01 09:08:00,61.3,57.0,29.74,SW,222,0.0,9.0,83,0.00,,,0.00,meteohub,2013-06-01 14:08:00,
2013-06-01 09:13:00,61.7,57.4,29.74,NNE,21,0.0,9.0,83,0.00,,,0.00,meteohub,2013-06-01 14:13:00,
2013-06-01 09:18:00,61.9,56.8,29.74,NNW,330,0.0,9.0,81,0.00,,,0.00,meteohub,2013-06-01 14:18:00,
2013-06-01 09:23:00,62.4,57.6,29.74,NNW,345,0.0,3.0,81,0.00,,,0.00,meteohub,2013-06-01 14:23:00,
2013-06-01 09:28:00,62.8,57.4,29.74,North,357,0.0,3.0,79,0.00,,,0.00,meteohub,2013-06-01 14:28:00,
2013-06-01 09:33:00,62.6,56.8,29.77,North,0,0.0,3.0,78,0.00,,,0.00,meteohub,2013-06-01 14:33:00,
2013-06-01 09:38:00,62.2,56.7,29.77,NNW,342,0.0,3.0,78,0.00,,,0.00,meteohub,2013-06-01 14:38:00,
2013-06-01 09:43:00,62.1,56.3,29.77,NW,326,0.0,2.0,77,0.00,,,0.00,meteohub,2013-06-01 14:43:00,
2013-06-01 09:48:00,62.1,56.8,29.77,NNW,334,0.0,6.0,78,0.00,,,0.00,meteohub,2013-06-01 14:48:00,
2013-06-01 09:53:00,61.7,56.1,29.77,WNW,290,0.0,6.0,77,0.00,,,0.00,meteohub,2013-06-01 14:53:00,
2013-06-01 09:58:00,61.3,55.0,29.77,NE,44,0.0,6.0,75,0.00,,,0.00,meteohub,2013-06-01 14:58:00,
2013-06-01 10:03:00,61.2,55.4,29.77,NNW,335,0.0,8.0,76,0.00,,,0.00,meteohub,2013-06-01 15:03:00,
2013-06-01 10:08:00,61.0,54.7,29.77,North,349,3.0,8.0,74,0.00,,,0.00,meteohub,2013-06-01 15:08:00,
2013-06-01 10:14:00,61.0,54.5,29.77,NNW,329,2.0,8.0,73,0.00,,,0.00,meteohub,2013-06-01 15:14:00,
2013-06-01 10:19:00,61.2,54.9,29.77,NNW,330,0.0,3.0,73,0.00,,,0.00,meteohub,2013-06-01 15:19:00,
2013-06-01 10:24:00,61.3,54.7,29.77,NW,315,0.0,3.0,72,0.00,,,0.00,meteohub,2013-06-01 15:24:00,
2013-06-01 10:29:00,61.9,55.2,29.77,North,0,0.0,3.0,74,0.00,,,0.00,meteohub,2013-06-01 15:29:00,
2013-06-01 10:34:00,61.5,55.0,29.80,NNW,328,0.0,9.0,74,0.00,,,0.00,meteohub,2013-06-01 15:34:00,
2013-06-01 10:39:00,61.2,54.7,29.80,WNW,290,3.0,9.0,74,0.00,,,0.00,meteohub,2013-06-01 15:39:00,
2013-06-01 10:44:00,61.2,55.6,29.80,NNE,28,0.0,9.0,77,0.00,,,0.00,meteohub,2013-06-01 15:44:00,
2013-06-01 10:49:00,60.6,54.1,29.80,NW,321,0.0,7.0,74,0.00,,,0.00,meteohub,2013-06-01 15:49:00,
2013-06-01 10:54:00,60.4,54.9,29.80,NNW,332,0.0,7.0,76,0.00,,,0.00,meteohub,2013-06-01 15:54:00,
2013-06-01 10:59:00,60.4,54.5,29.80,NW,326,0.0,7.0,75,0.00,,,0.00,meteohub,2013-06-01 15:59:00,
2013-06-01 11:04:00,60.3,54.3,29.80,North,357,0.0,11.0,75,0.00,,,0.00,meteohub,2013-06-01 16:04:00,
2013-06-01 11:09:00,60.3,54.1,29.80,NNW,333,0.0,11.0,75,0.00,,,0.00,meteohub,2013-06-01 16:09:00,
2013-06-01 11:14:00,60.4,54.9,29.80,NNW,344,2.0,11.0,76,0.00,,,0.00,meteohub,2013-06-01 16:14:00,
2013-06-01 11:19:00,60.4,54.3,29.80,NW,319,10.0,10.0,74,0.00,,,0.00,meteohub,2013-06-01 16:19:00,
2013-06-01 11:25:00,60.6,54.3,29.80,NNW,339,2.0,8.0,74,0.00,,,0.00,meteohub,2013-06-01 16:25:00,
2013-06-01 11:30:00,60.8,54.3,29.80,WNW,297,0.0,10.0,74,0.00,,,0.00,meteohub,2013-06-01 16:30:00,
2013-06-01 11:35:00,60.8,54.0,29.80,West,281,0.0,10.0,74,0.00,,,0.00,meteohub,2013-06-01 16:35:00,
2013-06-01 11:40:00,60.6,54.1,29.80,NNW,331,0.0,8.0,74,0.00,,,0.00,meteohub,2013-06-01 16:40:00,
2013-06-01 11:45:00,60.8,53.4,29.80,NW,305,0.0,5.0,72,0.00,,,0.00,meteohub,2013-06-01 16:45:00,
2013-06-01 11:50:00,61.0,54.0,29.83,North,6,0.0,13.0,73,0.00,,,0.00,meteohub,2013-06-01 16:50:00,
2013-06-01 11:55:00,61.0,53.8,29.83,North,353,0.0,13.0,72,0.00,,,0.00,meteohub,2013-06-01 16:55:00,
2013-06-01 12:00:00,61.3,54.5,29.83,North,357,0.0,13.0,74,0.00,,,0.00,meteohub,2013-06-01 17:00:00,
2013-06-01 12:05:00,61.2,54.0,29.83,NNW,329,6.0,6.0,73,0.00,,,0.00,meteohub,2013-06-01 17:05:00,
2013-06-01 12:10:00,61.2,54.0,29.83,NW,324,0.0,6.0,73,0.00,,,0.00,meteohub,2013-06-01 17:10:00,
2013-06-01 12:15:00,61.0,53.2,29.83,North,0,0.0,6.0,71,0.00,,,0.00,meteohub,2013-06-01 17:15:00,
2013-06-01 12:20:00,60.8,53.1,29.83,NNW,335,0.0,8.0,70,0.00,,,0.00,meteohub,2013-06-01 17:20:00,
2013-06-01 12:25:00,61.0,53.8,29.83,North,357,0.0,8.0,72,0.00,,,0.00,meteohub,2013-06-01 17:25:00,
2013-06-01 12:30:00,61.0,53.6,29.83,North,6,0.0,8.0,72,0.00,,,0.00,meteohub,2013-06-01 17:30:00,
2013-06-01 12:36:00,61.2,53.6,29.83,East,81,0.0,2.0,72,0.00,,,0.00,meteohub,2013-06-01 17:36:00,
2013-06-01 12:41:00,61.2,53.6,29.83,NNW,340,3.0,3.0,72,0.00,,,0.00,meteohub,2013-06-01 17:41:00,
2013-06-01 12:46:00,61.0,53.2,29.83,NNW,327,0.0,3.0,71,0.00,,,0.00,meteohub,2013-06-01 17:46:00,
2013-06-01 12:51:00,61.3,54.1,29.83,North,0,0.0,3.0,73,0.00,,,0.00,meteohub,2013-06-01 17:51:00,
2013-06-01 12:56:00,61.3,53.4,29.83,North,353,0.0,4.0,71,0.00,,,0.00,meteohub,2013-06-01 17:56:00,
2013-06-01 13:01:00,61.5,53.6,29.83,NW,318,3.0,8.0,71,0.00,,,0.00,meteohub,2013-06-01 18:01:00,
2013-06-01 13:06:00,61.7,53.2,29.83,North,3,0.0,8.0,70,0.00,,,0.00,meteohub,2013-06-01 18:06:00,
2013-06-01 13:11:00,61.5,53.2,29.83,North,349,0.0,8.0,70,0.00,,,0.00,meteohub,2013-06-01 18:11:00,
2013-06-01 13:16:00,61.5,53.8,29.83,NNW,335,3.0,3.0,71,0.00,,,0.00,meteohub,2013-06-01 18:16:00,
2013-06-01 13:21:00,61.5,53.1,29.86,NNW,327,0.0,4.0,69,0.00,,,0.00,meteohub,2013-06-01 18:21:00,
2013-06-01 13:26:00,61.7,53.4,29.86,NNW,337,0.0,4.0,70,0.00,,,0.00,meteohub,2013-06-01 18:26:00,
2013-06-01 13:31:00,61.9,54.0,29.86,NNW,337,0.0,4.0,70,0.00,,,0.00,meteohub,2013-06-01 18:31:00,
2013-06-01 13:36:00,62.1,53.4,29.86,North,353,0.0,2.0,69,0.00,,,0.00,meteohub,2013-06-01 18:36:00,
2013-06-01 13:41:00,62.4,54.5,29.86,NNE,18,0.0,2.0,71,0.00,,,0.00,meteohub,2013-06-01 18:41:00,
2013-06-01 13:47:00,62.2,53.4,29.86,NW,325,0.0,3.0,69,0.00,,,0.00,meteohub,2013-06-01 18:47:00,
2013-06-01 13:52:00,62.2,54.0,29.86,NW,320,0.0,3.0,70,0.00,,,0.00,meteohub,2013-06-01 18:52:00,
2013-06-01 13:57:00,62.2,54.0,29.86,WNW,301,8.0,8.0,70,0.00,,,0.00,meteohub,2013-06-01 18:57:00,
2013-06-01 14:02:00,62.2,53.6,29.86,North,353,0.0,8.0,69,0.00,,,0.00,meteohub,2013-06-01 19:02:00,
2013-06-01 14:07:00,62.4,54.3,29.86,NE,41,2.0,8.0,70,0.00,,,0.00,meteohub,2013-06-01 19:07:00,
2013-06-01 14:12:00,62.4,54.0,29.86,North,353,0.0,8.0,69,0.00,,,0.00,meteohub,2013-06-01 19:12:00,
2013-06-01 14:17:00,62.8,54.3,29.86,North,353,0.0,6.0,70,0.00,,,0.00,meteohub,2013-06-01 19:17:00,
2013-06-01 14:22:00,62.8,54.0,29.86,NW,326,0.0,6.0,69,0.00,,,0.00,meteohub,2013-06-01 19:22:00,
2013-06-01 14:27:00,62.6,53.6,29.86,NW,320,2.0,4.0,68,0.00,,,0.00,meteohub,2013-06-01 19:27:00,
2013-06-01 14:32:00,62.6,53.2,29.86,NNW,337,0.0,4.0,67,0.00,,,0.00,meteohub,2013-06-01 19:32:00,
2013-06-01 14:37:00,62.6,54.1,29.86,NW,317,0.0,3.0,69,0.00,,,0.00,meteohub,2013-06-01 19:37:00,
2013-06-01 14:42:00,62.8,53.2,29.86,NNW,327,0.0,3.0,66,0.00,,,0.00,meteohub,2013-06-01 19:42:00,
2013-06-01 14:47:00,63.1,54.3,29.86,NNW,337,0.0,4.0,67,0.00,,,0.00,meteohub,2013-06-01 19:47:00,
2013-06-01 14:52:00,63.7,54.7,29.86,NW,321,0.0,4.0,67,0.00,,,0.00,meteohub,2013-06-01 19:52:00,
2013-06-01 14:57:00,64.0,55.0,29.86,NW,319,0.0,4.0,67,0.00,,,0.00,meteohub,2013-06-01 19:57:00,
2013-06-01 15:02:00,64.2,54.0,29.86,North,357,0.0,3.0,64,0.00,,,0.00,meteohub,2013-06-01 20:02:00,
2013-06-01 15:08:00,64.4,53.8,29.86,NW,317,0.0,5.0,62,0.00,,,0.00,meteohub,2013-06-01 20:08:00,
2013-06-01 15:13:00,64.0,53.2,29.86,NW,314,0.0,5.0,62,0.00,,,0.00,meteohub,2013-06-01 20:13:00,
2013-06-01 15:18:00,64.2,54.5,29.86,NNW,338,0.0,7.0,64,0.00,,,0.00,meteohub,2013-06-01 20:18:00,
2013-06-01 15:23:00,64.2,54.7,29.86,NNW,331,0.0,7.0,64,0.00,,,0.00,meteohub,2013-06-01 20:23:00,
2013-06-01 15:28:00,64.6,54.7,29.86,NNW,329,3.0,7.0,63,0.00,,,0.00,meteohub,2013-06-01 20:28:00,
2013-06-01 15:33:00,64.6,53.2,29.86,NNW,341,2.0,11.0,60,0.00,,,0.00,meteohub,2013-06-01 20:33:00,
2013-06-01 15:38:00,64.6,52.9,29.86,NNW,340,0.0,11.0,60,0.00,,,0.00,meteohub,2013-06-01 20:38:00,
2013-06-01 15:43:00,64.6,53.1,29.86,NW,321,0.0,11.0,60,0.00,,,0.00,meteohub,2013-06-01 20:43:00,
2013-06-01 15:48:00,64.6,52.5,29.89,NNW,336,2.0,3.0,59,0.00,,,0.00,meteohub,2013-06-01 20:48:00,
2013-06-01 15:53:00,64.6,53.4,29.89,NNW,344,0.0,8.0,61,0.00,,,0.00,meteohub,2013-06-01 20:53:00,
2013-06-01 15:58:00,64.6,52.7,29.89,NNW,333,0.0,10.0,60,0.00,,,0.00,meteohub,2013-06-01 20:58:00,
2013-06-01 16:03:00,64.6,53.2,29.89,NW,316,0.0,10.0,61,0.00,,,0.00,meteohub,2013-06-01 21:03:00,
2013-06-01 16:08:00,64.4,53.1,29.89,NNW,341,0.0,3.0,61,0.00,,,0.00,meteohub,2013-06-01 21:08:00,
2013-06-01 16:13:00,64.4,53.4,29.89,NNW,331,0.0,3.0,62,0.00,,,0.00,meteohub,2013-06-01 21:13:00,
2013-06-01 16:18:00,64.4,53.2,29.89,NNW,341,0.0,7.0,61,0.00,,,0.00,meteohub,2013-06-01 21:18:00,
2013-06-01 16:24:00,64.6,54.1,29.89,North,10,0.0,7.0,63,0.00,,,0.00,meteohub,2013-06-01 21:24:00,
2013-06-01 16:29:00,64.6,53.2,29.89,NW,313,0.0,7.0,61,0.00,,,0.00,meteohub,2013-06-01 21:29:00,
2013-06-01 16:34:00,64.6,52.5,29.89,NW,307,0.0,0.0,60,0.00,,,0.00,meteohub,2013-06-01 21:34:00,
2013-06-01 16:39:00,64.6,53.1,29.89,NW,322,0.0,3.0,61,0.00,,,0.00,meteohub,2013-06-01 21:39:00,
2013-06-01 16:44:00,64.2,52.2,29.89,North,5,0.0,4.0,60,0.00,,,0.00,meteohub,2013-06-01 21:44:00,
2013-06-01 16:49:00,64.0,52.2,29.89,NW,324,0.0,4.0,60,0.00,,,0.00,meteohub,2013-06-01 21:49:00,
2013-06-01 16:54:00,64.0,52.2,29.89,NNW,334,11.0,11.0,60,0.00,,,0.00,meteohub,2013-06-01 21:54:00,
2013-06-01 16:59:00,63.9,53.4,29.89,NNW,335,0.0,11.0,63,0.00,,,0.00,meteohub,2013-06-01 21:59:00,
2013-06-01 17:04:00,63.9,52.7,29.89,NNW,340,0.0,11.0,61,0.00,,,0.00,meteohub,2013-06-01 22:04:00,
2013-06-01 17:09:00,64.0,52.2,29.89,North,350,0.0,11.0,60,0.00,,,0.00,meteohub,2013-06-01 22:09:00,
2013-06-01 17:14:00,63.9,51.6,29.89,NNW,334,0.0,10.0,59,0.00,,,0.00,meteohub,2013-06-01 22:14:00,
2013-06-01 17:19:00,63.9,51.8,29.89,NNW,331,0.0,11.0,59,0.00,,,0.00,meteohub,2013-06-01 22:19:00,
2013-06-01 17:24:00,64.0,52.5,29.89,NW,322,0.0,11.0,60,0.00,,,0.00,meteohub,2013-06-01 22:24:00,
2013-06-01 17:29:00,64.0,51.3,29.89,North,0,3.0,11.0,58,0.00,,,0.00,meteohub,2013-06-01 22:29:00,
2013-06-01 17:34:00,63.7,52.9,29.92,North,357,0.0,10.0,61,0.00,,,0.00,meteohub,2013-06-01 22:34:00,
2013-06-01 17:40:00,63.9,52.0,29.92,North,349,0.0,10.0,59,0.00,,,0.00,meteohub,2013-06-01 22:40:00,
2013-06-01 17:45:00,63.5,51.4,29.92,NW,322,0.0,10.0,58,0.00,,,0.00,meteohub,2013-06-01 22:45:00,
2013-06-01 17:50:00,63.5,52.0,29.92,North,353,0.0,7.0,59,0.00,,,0.00,meteohub,2013-06-01 22:50:00,
2013-06-01 17:55:00,63.3,52.2,29.92,North,0,0.0,7.0,60,0.00,,,0.00,meteohub,2013-06-01 22:55:00,
2013-06-01 18:00:00,63.1,51.4,29.92,NNW,327,0.0,3.0,59,0.00,,,0.00,meteohub,2013-06-01 23:00:00,
2013-06-01 18:05:00,63.0,51.4,29.92,NNE,12,0.0,9.0,59,0.00,,,0.00,meteohub,2013-06-01 23:05:00,
2013-06-01 18:10:00,62.6,51.1,29.92,NW,312,0.0,9.0,59,0.00,,,0.00,meteohub,2013-06-01 23:10:00,
2013-06-01 18:15:00,62.4,51.6,29.92,North,353,0.0,9.0,60,0.00,,,0.00,meteohub,2013-06-01 23:15:00,
2013-06-01 18:20:00,62.6,51.4,29.92,NNW,345,0.0,3.0,60,0.00,,,0.00,meteohub,2013-06-01 23:20:00,
2013-06-01 18:25:00,62.2,51.1,29.92,NW,316,0.0,3.0,60,0.00,,,0.00,meteohub,2013-06-01 23:25:00,
2013-06-01 18:30:00,62.1,50.7,29.92,NNE,31,0.0,8.0,60,0.00,,,0.00,meteohub,2013-06-01 23:30:00,
2013-06-01 18:35:00,61.9,51.1,29.92,NNW,346,0.0,8.0,61,0.00,,,0.00,meteohub,2013-06-01 23:35:00,
2013-06-01 18:40:00,61.9,50.7,29.92,NNW,330,0.0,8.0,61,0.00,,,0.00,meteohub,2013-06-01 23:40:00,
2013-06-01 18:46:00,61.5,50.9,29.92,NW,311,0.0,10.0,62,0.00,,,0.00,meteohub,2013-06-01 23:46:00,
2013-06-01 18:51:00,61.5,51.6,29.95,NNW,345,0.0,10.0,64,0.00,,,0.00,meteohub,2013-06-01 23:51:00,
2013-06-01 18:56:00,61.3,50.9,29.95,NNW,330,8.0,8.0,63,0.00,,,0.00,meteohub,2013-06-01 23:56:00,
2013-06-01 19:01:00,61.2,50.7,29.95,NNW,334,0.0,8.0,63,0.00,,,0.00,meteohub,2013-06-02 00:01:00,
2013-06-01 19:06:00,61.2,50.5,29.95,NNW,332,0.0,10.0,63,0.00,,,0.00,meteohub,2013-06-02 00:06:00,
2013-06-01 19:11:00,61.2,50.9,29.95,WNW,282,0.0,10.0,64,0.00,,,0.00,meteohub,2013-06-02 00:11:00,
2013-06-01 19:16:00,61.0,50.7,29.95,NNW,341,0.0,9.0,64,0.00,,,0.00,meteohub,2013-06-02 00:16:00,
2013-06-01 19:21:00,61.0,50.2,29.95,NW,316,0.0,3.0,63,0.00,,,0.00,meteohub,2013-06-02 00:21:00,
2013-06-01 19:26:00,61.0,51.1,29.95,North,353,0.0,3.0,65,0.00,,,0.00,meteohub,2013-06-02 00:26:00,
2013-06-01 19:31:00,60.8,50.9,29.95,NNW,345,0.0,4.0,65,0.00,,,0.00,meteohub,2013-06-02 00:31:00,
2013-06-01 19:36:00,60.8,51.3,29.95,NNW,333,0.0,4.0,66,0.00,,,0.00,meteohub,2013-06-02 00:36:00,
2013-06-01 19:41:00,60.8,50.9,29.95,NNW,337,0.0,4.0,65,0.00,,,0.00,meteohub,2013-06-02 00:41:00,
2013-06-01 19:46:00,60.8,50.2,29.95,NNW,342,0.0,4.0,64,0.00,,,0.00,meteohub,2013-06-02 00:46:00,
2013-06-01 19:51:00,60.8,50.5,29.98,NNW,339,0.0,5.0,65,0.00,,,0.00,meteohub,2013-06-02 00:51:00,
2013-06-01 19:57:00,60.6,50.9,29.98,North,357,0.0,5.0,66,0.00,,,0.00,meteohub,2013-06-02 00:57:00,
2013-06-01 20:02:00,60.6,50.9,29.98,NW,318,0.0,5.0,66,0.00,,,0.00,meteohub,2013-06-02 01:02:00,
2013-06-01 20:07:00,60.6,50.9,29.98,NNW,346,0.0,0.0,66,0.00,,,0.00,meteohub,2013-06-02 01:07:00,
2013-06-01 20:12:00,60.6,51.1,29.98,NNW,330,0.0,0.0,67,0.00,,,0.00,meteohub,2013-06-02 01:12:00,
2013-06-01 20:17:00,60.6,51.1,29.98,NW,325,0.0,0.0,67,0.00,,,0.00,meteohub,2013-06-02 01:17:00,
2013-06-01 20:22:00,60.6,52.0,29.98,NW,304,0.0,0.0,69,0.00,,,0.00,meteohub,2013-06-02 01:22:00,
2013-06-01 20:27:00,60.6,50.9,29.98,NW,316,0.0,0.0,67,0.00,,,0.00,meteohub,2013-06-02 01:27:00,
2013-06-01 20:32:00,60.4,51.6,29.98,NW,325,0.0,2.0,69,0.00,,,0.00,meteohub,2013-06-02 01:32:00,
2013-06-01 20:37:00,60.3,51.4,29.98,NNW,338,0.0,3.0,69,0.00,,,0.00,meteohub,2013-06-02 01:37:00,
2013-06-01 20:42:00,60.1,50.9,29.98,North,357,0.0,3.0,68,0.00,,,0.00,meteohub,2013-06-02 01:42:00,
2013-06-01 20:47:00,59.7,51.4,29.98,NW,323,0.0,3.0,70,0.00,,,0.00,meteohub,2013-06-02 01:47:00,
2013-06-01 20:52:00,59.5,51.3,29.98,NW,318,0.0,3.0,70,0.00,,,0.00,meteohub,2013-06-02 01:52:00,
2013-06-01 20:57:00,59.4,51.1,29.98,NW,308,0.0,2.0,70,0.00,,,0.00,meteohub,2013-06-02 01:57:00,
2013-06-01 21:02:00,59.2,50.9,29.98,NNW,332,0.0,2.0,70,0.00,,,0.00,meteohub,2013-06-02 02:02:00,
2013-06-01 21:07:00,59.0,50.9,29.98,North,0,0.0,2.0,70,0.00,,,0.00,meteohub,2013-06-02 02:07:00,
2013-06-01 21:12:00,59.0,51.1,29.98,North,357,0.0,2.0,71,0.00,,,0.00,meteohub,2013-06-02 02:12:00,
2013-06-01 21:17:00,59.0,51.1,29.98,North,3,0.0,3.0,71,0.00,,,0.00,meteohub,2013-06-02 02:17:00,
2013-06-01 21:22:00,58.8,51.1,29.98,NNW,332,0.0,3.0,71,0.00,,,0.00,meteohub,2013-06-02 02:22:00,
2013-06-01 21:27:00,58.8,51.4,29.98,NNW,331,0.0,0.0,72,0.00,,,0.00,meteohub,2013-06-02 02:27:00,
2013-06-01 21:32:00,58.6,51.3,29.98,NW,316,0.0,0.0,72,0.00,,,0.00,meteohub,2013-06-02 02:32:00,
2013-06-01 21:37:00,58.5,50.7,29.98,North,350,0.0,0.0,71,0.00,,,0.00,meteohub,2013-06-02 02:37:00,
2013-06-01 21:42:00,58.3,50.9,29.98,North,353,0.0,2.0,72,0.00,,,0.00,meteohub,2013-06-02 02:42:00,
2013-06-01 21:47:00,58.1,50.7,29.98,North,353,0.0,2.0,72,0.00,,,0.00,meteohub,2013-06-02 02:47:00,
2013-06-01 21:52:00,57.9,51.1,30.01,NNE,18,0.0,2.0,73,0.00,,,0.00,meteohub,2013-06-02 02:52:00,
2013-06-01 21:57:00,57.9,50.9,30.01,NNW,345,0.0,0.0,73,0.00,,,0.00,meteohub,2013-06-02 02:57:00,
2013-06-01 22:02:00,57.7,50.4,30.01,WNW,293,5.0,5.0,72,0.00,,,0.00,meteohub,2013-06-02 03:02:00,
2013-06-01 22:07:00,57.7,50.7,30.01,North,0,0.0,5.0,73,0.00,,,0.00,meteohub,2013-06-02 03:07:00,
2013-06-01 22:12:00,57.6,50.7,30.01,NW,322,0.0,5.0,73,0.00,,,0.00,meteohub,2013-06-02 03:12:00,
2013-06-01 22:17:00,57.6,50.7,30.01,NNW,341,0.0,5.0,73,0.00,,,0.00,meteohub,2013-06-02 03:17:00,
2013-06-01 22:22:00,57.6,50.5,30.01,NW,326,0.0,3.0,73,0.00,,,0.00,meteohub,2013-06-02 03:22:00,
2013-06-01 22:27:00,57.6,50.5,30.01,NNW,335,0.0,3.0,73,0.00,,,0.00,meteohub,2013-06-02 03:27:00,
2013-06-01 22:32:00,57.6,50.5,30.01,NNW,341,0.0,0.0,73,0.00,,,0.00,meteohub,2013-06-02 03:32:00,
2013-06-01 22:37:00,57.6,50.5,30.01,North,357,0.0,2.0,73,0.00,,,0.00,meteohub,2013-06-02 03:37:00,
2013-06-01 22:42:00,57.4,50.5,30.01,North,353,2.0,2.0,73,0.00,,,0.00,meteohub,2013-06-02 03:42:00,
2013-06-01 22:47:00,57.4,50.4,30.01,NW,312,0.0,3.0,73,0.00,,,0.00,meteohub,2013-06-02 03:47:00,
2013-06-01 22:52:00,57.2,50.4,30.01,NE,49,0.0,3.0,74,0.00,,,0.00,meteohub,2013-06-02 03:52:00,
2013-06-01 22:57:00,57.0,50.0,30.01,North,6,0.0,3.0,73,0.00,,,0.00,meteohub,2013-06-02 03:57:00,
2013-06-01 23:01:00,57.0,50.4,30.01,NNE,19,2.0,2.0,74,0.00,,,0.00,meteohub,2013-06-02 04:01:00,
2013-06-01 23:02:00,57.0,49.8,30.01,NNE,18,0.0,2.0,73,0.00,,,0.00,meteohub,2013-06-02 04:02:00,
2013-06-01 23:04:00,56.8,50.0,30.04,North,357,0.0,2.0,73,0.00,,,0.00,meteohub,2013-06-02 04:04:00,
2013-06-01 23:05:00,56.8,50.4,30.04,NNW,333,0.0,2.0,74,0.00,,,0.00,meteohub,2013-06-02 04:05:00,
2013-06-01 23:10:00,56.8,50.2,30.04,NNW,346,0.0,2.0,74,0.00,,,0.00,meteohub,2013-06-02 04:10:00,
2013-06-01 23:15:00,56.7,50.0,30.04,NNE,17,0.0,2.0,74,0.00,,,0.00,meteohub,2013-06-02 04:15:00,
2013-06-01 23:20:00,56.5,49.8,30.04,NNW,337,0.0,2.0,74,0.00,,,0.00,meteohub,2013-06-02 04:20:00,
2013-06-01 23:25:00,56.3,49.6,30.04,NNW,344,0.0,4.0,74,0.00,,,0.00,meteohub,2013-06-02 04:25:00,
2013-06-01 23:31:00,56.3,49.6,30.04,NNW,341,0.0,4.0,74,0.00,,,0.00,meteohub,2013-06-02 04:31:00,
2013-06-01 23:36:00,56.1,49.5,30.04,NNW,337,0.0,4.0,74,0.00,,,0.00,meteohub,2013-06-02 04:36:00,
2013-06-01 23:41:00,56.1,49.5,30.04,NNW,344,0.0,4.0,74,0.00,,,0.00,meteohub,2013-06-02 04:41:00,
2013-06-01 23:46:00,56.1,49.8,30.04,NNW,346,0.0,4.0,75,0.00,,,0.00,meteohub,2013-06-02 04:46:00,
2013-06-01 23:51:00,56.1,49.8,30.04,NNW,339,0.0,4.0,75,0.00,,,0.00,meteohub,2013-06-02 04:51:00,
2013-06-01 23:56:00,55.9,49.6,30.04,NW,310,0.0,0.0,75,0.00,,,0.00,meteohub,2013-06-02 04:56:00,